Skip Page Navigation
NASA JPL Caltech
NASA Logo - Jet Propulsion Laboratory + View the NASA Portal
+ Center for Near-Earth Object Studies
JPL Home Earth Solar System Stars & Galaxies Technology
JPL Solar System Dynamics
BODIES ORBITS EPHEMERIDES TOOLS PHYSICAL DATA DISCOVERY FAQ SITE MAP
JPL Small-Body Database Browser
Search: [ help ]  
103518 (2000 BF5)
Classification: Main-belt Asteroid          SPK-ID: 2103518
Ephemeris | Orbit Diagram | Orbital Elements | Mission Design | Physical Parameters | Discovery Circumstances ]

[ show orbit diagram ]
Orbital Elements at Epoch 2459200.5 (2020-Dec-17.0) TDB
Reference: JPL 13 (heliocentric ecliptic J2000)
 Element Value Uncertainty (1-sigma)   Units 
e .1483736703355299 4.1899e-08  
a 2.24007265252079 1.1396e-08 au
q 1.907704851248034 9.158e-08 au
i 3.952971185429115 6.2078e-06 deg
node 326.7809148950905 7.2012e-05 deg
peri 101.3235108931818 7.5477e-05 deg
M 123.0357386930282 2.2118e-05 deg
tp 2458781.976003960725
(2019-Oct-25.47600396)
7.4452e-05 TDB
period 1224.592465365324
3.35
9.3451e-06
2.559e-08
d
yr
n .2939753511325124 2.2434e-09 deg/d
Q 2.572440453793546 1.3087e-08 au
  Orbit Determination Parameters
   # obs. used (total)      304  
   data-arc span      9035 days (24.74 yr)  
   first obs. used      1995-08-19  
   last obs. used      2020-05-14  
   planetary ephem.      DE431  
   SB-pert. ephem.      SB431-N16  
   condition code      0  
   norm. resid. RMS      .541  
   source      ORB  
   producer      Otto Matic  
   solution date      2020-Nov-12 19:48:07  

Additional Information
 Earth MOID = .925904 au 
 Jupiter MOID = 2.69827 au 
 T_jup = 3.617 
[ show covariance matrix ]

Ephemeris | Orbit Diagram | Orbital Elements | Mission Design | Physical Parameters | Discovery Circumstances ]

Physical Parameter Table
Parameter Symbol Value Units Sigma Reference Notes
absolute magnitude H 17.25   n/a E2021B55  

103518 (2000 BF5)          Discovered 2000-Jan-27 by LINEAR at Socorro
Reference: 20051019/Numbers.arcLast Updated: 2005-10-26

Alternate Designations
 2000 BF5 = 1995 QM1 
Ephemeris | Orbit Diagram | Orbital Elements | Mission Design | Physical Parameters | Discovery Circumstances ]
ABOUT SSD CREDITS/AWARDS PRIVACY/COPYRIGHT GLOSSARY LINKS
FirstGov 2021-Mar-04 20:15 UT
(server date/time)  
NASA Home Page
Site Manager:   Ryan S. Park
Webmaster  Alan B. Chamberlin